Home > Time Zones > World Clock > Weather > Iran > Ahvaz > Past weeks

Flag for Iran Weather past 2 weeks in Ahvaz, Iran

Now
93 °F

Passing clouds.


Feels Like: 94 °F
Forecast: 75 / 97 °F
Wind: 7 mph from West

Location: Ahwaz


UV Index: 7 (High)

Visibility: 4 mi


Pressure: 29.77 "Hg

Humidity: 36%

Dew point: 63 °F

Location of AhvazLocation

Historic Weather in Ahvaz

°F

Ahvaz temperature yesterday

Maximum temperature yesterday: 99 °F (at 3:30 PM)
Minimum temperature yesterday: 73 °F (at 5:30 AM)
Average temperature yesterday: 88 °F

Past Weeks' High & Low Weather Summary

 TemperatureHumidityPressure
High104 °F (Apr 18, 2:30 PM)78% (Apr 15, 1:00 AM)30.08 "Hg (Apr 15, 1:00 AM)
Low66 °F (Apr 10, 4:30 AM)10% (Apr 17, 4:30 PM)29.71 "Hg (Apr 20, 3:30 PM)
Average85 °F34%29.85 "Hg
* Reported Apr 8 6:30 PM — Apr 23 6:30 PM, Ahvaz, Weather by CustomWeather, © 2014

Note: Actual official high and low records may vary slightly from our data, if they occured in-between our weather recording intervals... More about our weather records

Advertising

Historic Weather Conditions — Data for Previous 24 hours

 ConditionsComfort  
Time TempWeatherWind HumidityBarometerVisibility
6:30 PM
Apr 23
95 °FPassing clouds.5 mph30%29.77 "Hg5 mi
6:00 PM97 °FSunny.5 mph23%29.77 "Hg10 mi
5:30 PM97 °FSunny.7 mph23%29.77 "Hg10 mi
5:00 PM97 °FSunny.7 mph23%29.77 "Hg10 mi
4:30 PM97 °FSunny.14 mph23%29.77 "Hg10 mi
4:00 PM97 °FSunny.14 mph25%29.80 "Hg10 mi
3:30 PM97 °FSunny.9 mph25%29.80 "Hg10 mi
3:00 PM97 °FSunny.14 mph25%29.83 "Hg10 mi
2:30 PM97 °FSunny.9 mph25%29.83 "Hg10 mi
2:00 PM97 °FSunny.7 mph23%29.83 "Hg10 mi
1:30 PM97 °FClear.12 mph23%29.83 "Hg5 mi
1:00 PM95 °FScattered clouds.5 mph23%29.83 "HgN/A
12:30 PM95 °FScattered clouds.12 mph23%29.83 "HgN/A
12:00 PM95 °FScattered clouds.5 mph25%29.86 "HgN/A
11:30 AM93 °FScattered clouds.12 mph24%29.86 "HgN/A
11:00 AM90 °FScattered clouds.7 mph29%29.86 "HgN/A
10:30 AM88 °FScattered clouds.9 mph33%29.86 "HgN/A
10:00 AM84 °FScattered clouds.5 mph45%29.86 "HgN/A
9:30 AM84 °FPassing clouds.7 mph37%29.86 "HgN/A
9:00 AM84 °FPassing clouds.7 mph43%29.86 "HgN/A
8:30 AM81 °FScattered clouds.No wind51%29.86 "HgN/A
7:30 AM79 °FPartly cloudy.No wind51%29.86 "HgN/A
6:30 AM79 °FPassing clouds.No wind54%29.86 "HgN/A
5:30 AM79 °FPartly cloudy.No wind54%29.86 "HgN/A
4:30 AM81 °FPartly cloudy.No wind51%29.83 "HgN/A
3:30 AM82 °FPartly cloudy.No wind48%29.89 "HgN/A
2:30 AM84 °FPartly cloudy.No wind43%29.89 "HgN/A
1:30 AM84 °FThunderstorms. Passing clouds.5 mph43%29.86 "HgN/A
12:55 AM84 °FPassing clouds.5 mph48%29.83 "HgN/A
12:30 AM86 °FPassing clouds.5 mph46%29.83 "HgN/A
11:55 PM
Apr 22
86 °FPassing clouds.5 mph46%29.83 "HgN/A
11:30 PM86 °FPassing clouds.5 mph49%29.80 "HgN/A
10:55 PM86 °FPassing clouds.No wind40%29.83 "HgN/A
10:30 PM88 °FPassing clouds.5 mph38%29.80 "HgN/A
9:55 PM88 °FPartly cloudy.5 mph33%29.83 "HgN/A
9:30 PM86 °FPartly cloudy.No wind38%29.83 "HgN/A
8:55 PM90 °FBroken clouds.No wind31%29.80 "HgN/A
8:30 PM82 °FBroken clouds.2 mph37%29.80 "HgN/A
7:55 PM91 °FSunny.2 mph28%29.80 "Hg10 mi
7:30 PM95 °FSunny.5 mph25%29.80 "Hg10 mi
Weather by CustomWeather, © 2014

See weather overview